Fredericksburg, TX

5:14 PM CDT on October 19, 2017 (GMT -0500)
Fredericksburg

Weather History for KT82 - February, 2014

Change the Weather History Date:

Sunday, February 2, 2014

  Actual Average (KSAT) Record (KSAT)
Temperature  
Mean Temperature 42 °F -  
Max Temperature 54 °F 62 °F 85 °F (1974)
Min Temperature 30 °F 41 °F 6 °F (1951)
Degree Days  
Heating Degree Days 23    
Moisture  
Dew Point 33 °F    
Average Humidity 87    
Maximum Humidity 94    
Minimum Humidity 68    
Precipitation  
Precipitation 0.00 in - - ()
Sea Level Pressure  
Sea Level Pressure 30.06 in    
Wind  
Wind Speed 12 mph (North)    
Max Wind Speed 22 mph    
Max Gust Speed 29 mph    
Visibility 8 miles    
Events Rain    
Averages and records for this station are not official NWS values.
T = Trace of Precipitation, MM = Missing Value Source: NWS Daily Summary

Daily Weather History Graph

Daily Weather History Graph

Search for Another Location

Airport or City:

Trip Planner

Search our weather history database for the weather conditions in past years. The results will help you decide how hot, cold, wet, or windy it might be!

Date:

Astronomy

Feb. 02, 2014 Rise Set
Actual Time 7:25 AM CST 6:13 PM CST
Civil Twilight 7:00 AM CST 6:38 PM CST
Nautical Twilight 6:31 AM CST 7:07 PM CST
Astronomical Twilight 6:03 AM CST 7:35 PM CST
Moon 9:10 AM CST (2/2) 9:39 PM CST (2/2)
Length of Visible Light 11h 37m
Length of Day
10h 47m
Waxing Crescent, 11% of the Moon is Illuminated
Feb 2
Waxing Crescent
Feb 6
First Quarter
Feb 14
Full
Feb 22
Last Quarter
Mar 1
New

Hourly Weather History & Observations

Time (CST) Temp. Windchill Dew Point Humidity Pressure Visibility Wind Dir Wind Speed Gust Speed Precip Events Conditions
12:15 AM 54.0 °F - 43.9 °F 69% 29.89 in 10.0 mi NE 8.1 mph - N/A   Overcast
12:35 AM 52.7 °F - 42.8 °F 69% 29.88 in 10.0 mi NE 9.2 mph - N/A   Overcast
12:55 AM 51.8 °F - 41.5 °F 68% 29.88 in 10.0 mi NE 8.1 mph - N/A   Overcast
1:15 AM 51.3 °F - 41.9 °F 70% 29.88 in 10.0 mi NE 5.8 mph - N/A   Overcast
1:35 AM 50.2 °F - 41.0 °F 71% 29.89 in 10.0 mi NE 11.5 mph - N/A   Overcast
1:55 AM 48.2 °F - 39.7 °F 73% 29.88 in 10.0 mi NE 9.2 mph - N/A   Overcast
2:15 AM 46.9 °F - 41.0 °F 80% 29.88 in 7.0 mi NE 9.2 mph - N/A Rain Light Rain
2:35 AM 46.2 °F 40.8 °F 41.4 °F 83% 29.90 in 7.0 mi ENE 11.5 mph - N/A   Overcast
2:55 AM 45.1 °F 41.4 °F 41.0 °F 85% 29.90 in 7.0 mi NE 6.9 mph - N/A   Light Drizzle
3:15 AM 44.2 °F 38.4 °F 40.6 °F 87% 29.91 in 7.0 mi NE 11.5 mph - N/A   Overcast
3:35 AM 43.7 °F 38.6 °F 41.0 °F 90% 29.92 in 5.0 mi NE 9.2 mph - N/A   Overcast
3:55 AM 43.0 °F 36.8 °F 39.9 °F 89% 29.92 in 7.0 mi NNE 11.5 mph - N/A   Overcast
4:15 AM 42.3 °F 35.9 °F 39.2 °F 89% 29.93 in 7.0 mi NNE 11.5 mph 17.3 mph N/A   Overcast
4:35 AM 41.9 °F 36.3 °F 39.0 °F 90% 29.93 in 7.0 mi NNE 9.2 mph 19.6 mph N/A   Overcast
4:55 AM 41.2 °F 33.7 °F 38.3 °F 89% 29.94 in 7.0 mi NNE 13.8 mph 18.4 mph N/A   Overcast
5:15 AM 40.5 °F 32.8 °F 37.4 °F 89% 29.95 in 7.0 mi North 13.8 mph 21.9 mph N/A   Overcast
5:35 AM 40.3 °F 33.4 °F 36.5 °F 86% 29.96 in 7.0 mi North 11.5 mph 18.4 mph N/A   Overcast
5:55 AM 39.7 °F 31.2 °F 36.5 °F 88% 29.97 in 7.0 mi North 16.1 mph 19.6 mph N/A   Light Drizzle
6:15 AM 39.2 °F 29.8 °F 36.3 °F 89% 29.98 in 5.0 mi North 18.4 mph 23.0 mph N/A   Overcast
6:35 AM 37.8 °F 29.0 °F 35.1 °F 90% 29.99 in 5.0 mi North 15.0 mph 21.9 mph N/A   Overcast
6:55 AM 36.5 °F 29.7 °F 34.2 °F 91% 29.99 in 5.0 mi NNE 9.2 mph - N/A   Overcast
7:15 AM 35.4 °F 25.3 °F 32.0 °F 87% 30.01 in 10.0 mi North 17.3 mph 21.9 mph N/A   Overcast
7:35 AM 34.9 °F 25.3 °F 31.8 °F 89% 30.01 in 10.0 mi North 15.0 mph - N/A   Overcast
7:55 AM 34.3 °F 25.0 °F 31.1 °F 88% 30.02 in 10.0 mi North 13.8 mph 26.5 mph N/A   Overcast
8:15 AM 34.0 °F 23.0 °F 30.6 °F 87% 30.03 in 10.0 mi North 18.4 mph 23.0 mph N/A   Overcast
8:35 AM 33.1 °F 21.5 °F 30.2 °F 89% 30.04 in 7.0 mi NNE 19.6 mph 24.2 mph N/A   Overcast
8:55 AM 32.5 °F 22.3 °F 30.2 °F 91% 30.06 in 7.0 mi North 15.0 mph 23.0 mph N/A   Overcast
9:15 AM 32.0 °F 19.5 °F 29.8 °F 92% 30.07 in 5.0 mi North 21.9 mph 28.8 mph N/A   Overcast
9:35 AM 32.0 °F 22.5 °F 30.2 °F 93% 30.08 in 4.0 mi North 12.7 mph 24.2 mph N/A   Overcast
9:55 AM 32.0 °F 21.6 °F 30.2 °F 93% 30.08 in 4.0 mi North 15.0 mph 23.0 mph N/A   Overcast
10:15 AM 32.2 °F 21.8 °F 30.4 °F 93% 30.09 in 3.0 mi North 15.0 mph 20.7 mph N/A   Overcast
10:35 AM 32.0 °F 22.1 °F 30.6 °F 94% 30.09 in 3.0 mi North 13.8 mph 21.9 mph N/A   Overcast
10:55 AM 32.0 °F 21.2 °F 30.2 °F 93% 30.10 in 4.0 mi North 16.1 mph 24.2 mph N/A   Overcast
11:15 AM 32.2 °F 21.8 °F 30.2 °F 92% 30.11 in 5.0 mi NNW 15.0 mph 20.7 mph N/A   Overcast
11:35 AM 32.2 °F 21.8 °F 30.2 °F 92% 30.11 in 4.0 mi North 15.0 mph 24.2 mph N/A   Overcast
11:55 AM 32.5 °F 22.3 °F 30.6 °F 92% 30.10 in 5.0 mi North 15.0 mph - N/A   Overcast
12:15 PM 32.9 °F 22.8 °F 30.9 °F 92% 30.10 in 4.0 mi North 15.0 mph 21.9 mph N/A   Overcast
12:35 PM 33.3 °F 22.8 °F 31.1 °F 92% 30.09 in 5.0 mi North 16.1 mph - N/A   Overcast
12:55 PM 33.8 °F 23.2 °F 31.1 °F 90% 30.09 in 10.0 mi North 17.3 mph 20.7 mph N/A   Overcast
1:15 PM 34.0 °F 23.4 °F 31.1 °F 89% 30.08 in 10.0 mi North 17.3 mph 23.0 mph N/A   Overcast
1:35 PM 34.7 °F 25.1 °F 31.1 °F 87% 30.08 in 10.0 mi North 15.0 mph 20.7 mph N/A   Overcast
1:55 PM 34.7 °F 24.7 °F 31.5 °F 88% 30.07 in 10.0 mi North 16.1 mph 20.7 mph N/A   Overcast
2:15 PM 34.9 °F 25.3 °F 31.8 °F 89% 30.06 in 10.0 mi North 15.0 mph 18.4 mph N/A   Overcast
2:35 PM 35.2 °F 27.1 °F 31.6 °F 87% 30.06 in 10.0 mi North 11.5 mph 20.7 mph N/A   Overcast
2:55 PM 36.1 °F 27.7 °F 31.8 °F 84% 30.06 in 10.0 mi North 12.7 mph - N/A   Overcast
3:15 PM 37.0 °F 27.7 °F 31.8 °F 81% 30.06 in 10.0 mi North 16.1 mph - N/A   Overcast
3:35 PM 38.3 °F 28.4 °F 32.0 °F 78% 30.07 in 10.0 mi North 19.6 mph 23.0 mph N/A   Overcast
3:55 PM 37.9 °F 27.6 °F 32.0 °F 79% 30.08 in 10.0 mi North 20.7 mph - N/A   Overcast
4:15 PM 37.4 °F 29.3 °F 32.0 °F 81% 30.09 in 10.0 mi NNW 12.7 mph 20.7 mph N/A   Overcast
4:35 PM 36.7 °F 26.3 °F 31.8 °F 83% 30.09 in 10.0 mi NNW 19.6 mph 24.2 mph N/A   Overcast
4:55 PM 34.7 °F 23.7 °F 30.7 °F 85% 30.11 in 10.0 mi North 19.6 mph 25.3 mph N/A   Overcast
5:15 PM 34.5 °F 24.1 °F 30.4 °F 85% 30.12 in 10.0 mi NNW 17.3 mph 23.0 mph N/A   Overcast
5:35 PM 33.8 °F 22.8 °F 29.8 °F 85% 30.13 in 10.0 mi NNW 18.4 mph 25.3 mph N/A   Overcast
5:55 PM 33.3 °F 22.1 °F 29.5 °F 86% 30.14 in 10.0 mi North 18.4 mph 23.0 mph N/A   Overcast
6:15 PM 32.4 °F 21.7 °F 29.1 °F 88% 30.14 in 10.0 mi North 16.1 mph 27.6 mph N/A   Overcast
6:35 PM 32.0 °F 21.2 °F 28.8 °F 88% 30.15 in 10.0 mi NNW 16.1 mph 24.2 mph N/A   Overcast
6:55 PM 32.0 °F 21.6 °F 28.8 °F 88% 30.16 in 10.0 mi North 15.0 mph 20.7 mph N/A   Overcast
7:15 PM 31.8 °F 19.3 °F 28.8 °F 88% 30.16 in 10.0 mi North 21.9 mph 28.8 mph N/A   Overcast
7:35 PM 31.1 °F 19.7 °F 28.6 °F 90% 30.17 in 7.0 mi North 17.3 mph 23.0 mph N/A   Overcast
7:55 PM 30.7 °F 19.6 °F 28.8 °F 92% 30.16 in 7.0 mi North 16.1 mph 20.7 mph N/A   Overcast
8:15 PM 30.6 °F 19.4 °F 28.2 °F 91% 30.16 in 10.0 mi North 16.1 mph - N/A   Overcast
8:35 PM 30.6 °F 19.4 °F 27.9 °F 90% 30.18 in 10.0 mi North 16.1 mph 19.6 mph N/A   Overcast
8:55 PM 30.7 °F 20.9 °F 27.5 °F 88% 30.18 in 10.0 mi North 12.7 mph 17.3 mph N/A   Overcast
9:15 PM 30.9 °F 21.7 °F 27.9 °F 88% 30.18 in 10.0 mi North 11.5 mph - N/A   Overcast
9:35 PM 30.9 °F 22.2 °F 28.0 °F 89% 30.18 in 10.0 mi North 10.4 mph - N/A   Overcast
9:55 PM 30.7 °F 22.0 °F 28.2 °F 90% 30.19 in 10.0 mi North 10.4 mph - N/A   Overcast
10:15 PM 30.9 °F 21.2 °F 28.2 °F 90% 30.19 in 10.0 mi North 12.7 mph - N/A   Overcast
10:35 PM 31.1 °F 21.4 °F 28.2 °F 89% 30.20 in 10.0 mi North 12.7 mph - N/A   Overcast
10:55 PM 31.1 °F 22.4 °F 28.2 °F 89% 30.21 in 10.0 mi North 10.4 mph - N/A   Overcast
11:15 PM 30.9 °F 22.2 °F 28.2 °F 90% 30.20 in 10.0 mi North 10.4 mph - N/A   Overcast
11:35 PM 30.9 °F 23.5 °F 28.6 °F 91% 30.21 in 7.0 mi North 8.1 mph - N/A   Overcast
11:55 PM 30.9 °F 23.5 °F 28.9 °F 92% 30.21 in 7.0 mi North 8.1 mph - N/A   Overcast